Temp
-6 -6 -6 -6 -6 -6 -6 -6 -5 -5 -6 -6 -6 -6 -6 -7 -7 -7 -7 -7 -7 -7 -7 -7 -7 -7 -7 -7 -7 -7 -7 -7 -7 -7 -7 -7 -7 -7 -7 -7 -7 -7 -7
-6 -6 -6 -6 -6 -6 -5 -5 -5 -5 -5 -6 -6 -6 -6 -6 -7 -7 -7 -7 -7 -7 -7 -7 -7 -7 -7 -7 -7 -7 -7 -7 -7 -7 -7 -8 -7 -7 -7 -7 -7 -7 -8
-6 -6 -6 -6 -6 -5 -5 -5 -5 -5 -5 -5 -6 -6 -6 -6 -6 -7 -7 -7 -7 -7 -7 -7 -7 -7 -7 -7 -7 -7 -7 -7 -7 -7 -8 -8 -8 -8 -8 -8 -8 -8 -8
-6 -6 -6 -6 -6 -5 -5 -5 -5 -5 -5 -5 -5 -6 -6 -6 -6 -6 -7 -7 -7 -7 -7 -7 -7 -7 -7 -7 -7 -8 -7 -7 -7 -8 -7 -8 -8 -8 -8 -8 -8 -8 -8
-6 -6 -6 -6 -6 -5 -5 -5 -5 -5 -5 -5 -6 -6 -6 -6 -6 -7 -7 -7 -7 -7 -7 -7 -7 -7 -7 -7 -7 -8 -8 -8 -8 -8 -8 -8 -8 -8 -8 -8 -8 -8 -8
-6 -6 -6 -6 -5 -5 -5 -5 -5 -5 -5 -6 -6 -6 -6 -6 -6 -7 -7 -7 -7 -7 -7 -7 -7 -7 -8 -8 -8 -8 -8 -8 -8 -8 -8 -8 -8 -8 -8 -8 -8 -8 -8
-7 -6 -6 -6 -5 -5 -5 -5 -5 -5 -5 -5 -6 -6 -6 -6 -6 -7 -7 -7 -7 -7 -8 -8 -8 -8 -8 -8 -8 -8 -8 -8 -8 -8 -8 -8 -8 -8 -8 -8 -8 -8 -8
-6 -6 -6 -6 -5 -5 -5 -5 -5 -5 -5 -6 -6 -6 -7 -7 -7 -7 -7 -7 -7 -8 -8 -8 -8 -8 -8 -8 -8 -8 -8 -8 -8 -8 -8 -8 -8 -8 -8 -8 -8 -8 -8
-6 -6 -6 -6 -5 -5 -5 -5 -5 -6 -6 -6 -6 -6 -7 -7 -7 -7 -7 -7 -7 -8 -8 -8 -8 -9 -9 -9 -8 -8 -8 -8 -8 -8 -8 -8 -8 -8 -8 -8 -8 -8 -8
-6 -6 -6 -6 -6 -6 -6 -5 -6 -6 -6 -6 -6 -6 -7 -7 -7 -7 -7 -7 -8 -8 -8 -8 -9 -9 -9 -9 -9 -9 -8 -9 -8 -8 -8 -8 -8 -8 -8 -8 -8 -8 -8
-6 -6 -6 -6 -6 -6 -6 -6 -6 -6 -6 -6 -6 -7 -7 -7 -7 -7 -8 -8 -8 -8 -8 -8 -9 -9 -9 -9 -9 -9 -9 -9 -8 -8 -8 -8 -8 -8 -8 -8 -8 -8 -8
-6 -6 -6 -6 -6 -6 -6 -6 -6 -6 -6 -6 -7 -7 -7 -7 -8 -8 -8 -8 -8 -8 -8 -9 -9 -9 -9 -9 -9 -9 -9 -9 -9 -8 -9 -9 -8 -8 -8 -8 -8 -8 -8
-8 -6 -7 -6 -6 -6 -6 -6 -6 -6 -6 -7 -7 -7 -8 -8 -8 -8 -8 -8 -8 -8 -9 -9 -9 -9 -9 -9 -9 -9 -9 -9 -9 -9 -9 -9 -9 -9 -9 -9 -9 -8 -8
-7 -8 -7 -7 -7 -7 -7 -7 -7 -7 -7 -7 -7 -8 -8 -8 -8 -8 -9 -9 -9 -9 -9 -9 -9 -9 -9 -9 -9 -9 -9 -9 -9 -9 -9 -9 -9 -9 -9 -9 -9 -9 -9
-8 -7 -8 -7 -7 -7 -7 -7 -7 -7 -7 -8 -8 -8 -8 -9 -9 -9 -9 -9 -9 -9 -9 -9 -9 -9 -9 -9 -9 -9 -9 -9 -9 -9 -9 -9 -9 -9 -9 -9 -9 -9 -9
-8 -8 -8 -8 -8 -8 -8 -8 -8 -8 -8 -8 -8 -9 -9 -9 -9 -9 -9 -10 -10 -10 -10 -10 -10 -10 -10 -10 -10 -9 -9 -10 -10 -9 -9 -9 -9 -10 -9 -9 -9 -9 -9
-9 -8 -9 -8 -8 -8 -8 -8 -8 -9 -9 -9 -9 -9 -9 -10 -10 -10 -10 -10 -10 -10 -10 -10 -10 -11 -11 -10 -10 -10 -10 -10 -10 -10 -10 -10 -10 -10 -10 -10 -10 -10 -10
-8 -9 -9 -8 -8 -9 -9 -9 -9 -9 -9 -10 -10 -10 -10 -10 -11 -11 -11 -11 -11 -11 -11 -11 -11 -11 -11 -11 -11 -11 -11 -11 -11 -11 -11 -10 -10 -10 -10 -10 -10 -10 -10
-9 -9 -9 -9 -9 -9 -9 -9 -9 -10 -10 -10 -10 -11 -11 -11 -11 -11 -11 -12 -12 -12 -11 -11 -11 -11 -11 -11 -11 -11 -11 -11 -11 -11 -11 -11 -11 -11 -11 -11 -11 -11 -10
-9 -9 -10 -10 -9 -10 -10 -10 -10 -10 -11 -11 -11 -11 -12 -12 -12 -12 -12 -12 -12 -12 -12 -12 -12 -12 -12 -12 -12 -12 -12 -12 -12 -11 -11 -11 -11 -11 -11 -11 -11 -11 -11
-9 -9 -10 -10 -10 -10 -10 -11 -11 -11 -11 -12 -12 -12 -12 -13 -13 -13 -13 -13 -13 -12 -13 -12 -12 -12 -12 -12 -12 -12 -12 -12 -12 -12 -12 -12 -12 -12 -12 -11 -11 -12 -12
-10 -10 -10 -11 -11 -11 -11 -11 -12 -12 -12 -12 -12 -13 -13 -13 -13 -13 -13 -13 -13 -13 -13 -13 -13 -13 -13 -13 -12 -12 -12 -12 -12 -12 -12 -12 -12 -12 -12 -12 -12 -12 -12
-10 -11 -11 -11 -11 -12 -12 -12 -12 -12 -13 -13 -13 -14 -14 -14 -14 -14 -14 -14 -14 -13 -13 -13 -13 -13 -13 -13 -13 -13 -12 -12 -13 -14 -13 -13 -13 -13 -13 -13 -13 -13 -13
-11 -11 -12 -12 -12 -12 -12 -13 -13 -13 -14 -14 -14 -14 -14 -15 -15 -14 -14 -14 -14 -14 -14 -14 -14 -14 -14 -14 -14 -14 -14 -13 -13 -13 -14 -14 -15 -14 -14 -14 -14 -14 -14
-12 -12 -12 -12 -12 -13 -13 -14 -14 -14 -14 -15 -15 -14 -14 -14 -14 -14 -15 -15 -15 -15 -15 -15 -15 -15 -16 -15 -15 -15 -16 -15 -15 -14 -13 -15 -15 -15 -15 -15 -15 -15 -15
-12 -12 -13 -13 -13 -14 -14 -14 -14 -15 -15 -15 -15 -15 -15 -15 -15 -15 -15 -15 -16 -16 -16 -16 -16 -16 -17 -17 -16 -16 -16 -16 -16 -16 -15 -15 -15 -15 -16 -16 -15 -15 -15
Height
5899 5898 5898 5897 5896 5894 5894 5893 5892 5891 5890 5889 5888 5887 5886 5886 5885 5884 5883 5882 5882 5880 5880 5879 5878 5877 5877 5876 5875 5873 5872 5871 5871 5870 5869 5867 5866 5865 5865 5864 5863 5862 5861
5897 5897 5896 5896 5895 5894 5893 5892 5890 5890 5889 5888 5887 5886 5885 5884 5883 5883 5882 5881 5880 5880 5879 5878 5878 5877 5876 5875 5875 5874 5873 5871 5870 5869 5868 5868 5867 5866 5865 5865 5864 5864 5863
5896 5895 5895 5894 5893 5892 5891 5890 5889 5888 5887 5886 5885 5884 5883 5883 5882 5881 5881 5880 5879 5878 5878 5878 5877 5876 5875 5874 5873 5873 5872 5871 5870 5869 5868 5868 5867 5866 5865 5865 5864 5864 5864
5895 5893 5893 5892 5891 5889 5889 5888 5887 5887 5885 5884 5884 5883 5882 5881 5880 5880 5879 5878 5878 5877 5876 5876 5875 5874 5873 5872 5871 5871 5871 5870 5869 5868 5868 5867 5867 5866 5866 5865 5864 5864 5864
5893 5891 5890 5889 5888 5887 5887 5886 5886 5885 5884 5883 5882 5881 5880 5879 5879 5878 5878 5877 5876 5875 5874 5873 5872 5871 5871 5870 5869 5869 5868 5868 5868 5867 5867 5866 5866 5866 5866 5865 5864 5864 5863
5890 5889 5887 5886 5886 5885 5884 5884 5883 5882 5882 5881 5880 5879 5878 5877 5877 5876 5875 5875 5874 5873 5872 5871 5871 5869 5869 5868 5867 5867 5866 5866 5866 5866 5866 5865 5865 5865 5865 5865 5864 5864 5863
5888 5886 5885 5885 5884 5883 5882 5881 5881 5880 5879 5878 5877 5876 5876 5875 5875 5873 5872 5872 5871 5870 5869 5869 5868 5867 5866 5866 5865 5865 5865 5864 5864 5864 5865 5864 5863 5863 5863 5864 5864 5863 5863
5885 5883 5882 5882 5881 5880 5879 5879 5878 5877 5876 5876 5875 5874 5873 5872 5872 5870 5870 5869 5867 5867 5866 5865 5864 5864 5863 5863 5863 5862 5862 5862 5862 5861 5863 5862 5862 5862 5862 5862 5862 5862 5862
5880 5880 5879 5879 5878 5877 5876 5875 5874 5874 5873 5873 5872 5871 5870 5869 5868 5867 5867 5866 5865 5864 5863 5862 5861 5860 5860 5860 5860 5860 5860 5860 5859 5859 5861 5859 5860 5860 5860 5860 5860 5860 5861
5875 5877 5875 5876 5874 5873 5872 5872 5871 5870 5870 5869 5868 5867 5867 5866 5865 5864 5863 5862 5861 5860 5859 5858 5858 5857 5858 5857 5857 5857 5857 5857 5857 5857 5858 5857 5858 5858 5858 5858 5858 5858 5858
5870 5874 5872 5872 5870 5869 5869 5868 5867 5867 5866 5865 5864 5864 5863 5862 5861 5860 5858 5857 5857 5855 5854 5853 5853 5853 5854 5853 5853 5853 5853 5853 5854 5854 5854 5854 5854 5855 5855 5855 5856 5855 5855
5866 5867 5867 5868 5867 5866 5865 5864 5863 5862 5861 5860 5860 5859 5858 5857 5856 5855 5854 5852 5851 5850 5849 5848 5848 5847 5848 5848 5848 5848 5848 5849 5849 5849 5850 5850 5850 5851 5851 5851 5852 5852 5852
5863 5861 5862 5862 5861 5861 5859 5859 5858 5857 5857 5856 5855 5853 5853 5852 5851 5850 5848 5847 5846 5845 5843 5843 5842 5841 5841 5841 5843 5843 5843 5843 5843 5844 5845 5844 5845 5846 5847 5847 5848 5848 5849
5860 5857 5856 5858 5857 5856 5853 5853 5851 5851 5851 5850 5849 5847 5846 5845 5844 5843 5842 5840 5839 5838 5837 5836 5836 5835 5835 5835 5835 5836 5837 5837 5837 5838 5839 5838 5839 5840 5841 5842 5842 5843 5844
5856 5853 5853 5850 5850 5850 5849 5847 5846 5845 5843 5842 5841 5840 5839 5838 5836 5835 5834 5833 5832 5830 5830 5829 5829 5829 5828 5828 5828 5828 5828 5829 5830 5830 5832 5832 5832 5832 5833 5834 5835 5836 5837
5851 5849 5847 5846 5845 5844 5842 5841 5839 5838 5837 5836 5834 5832 5831 5829 5828 5827 5825 5824 5823 5822 5821 5821 5821 5820 5820 5820 5820 5820 5820 5820 5820 5821 5822 5823 5824 5824 5825 5826 5826 5828 5829
5847 5844 5843 5840 5839 5838 5836 5834 5833 5831 5830 5828 5827 5825 5823 5822 5820 5819 5817 5816 5814 5813 5813 5813 5812 5812 5812 5811 5811 5810 5810 5810 5810 5810 5810 5812 5813 5814 5814 5815 5817 5818 5819
5841 5838 5836 5834 5832 5831 5829 5828 5826 5824 5822 5820 5819 5817 5815 5813 5812 5810 5808 5807 5806 5805 5804 5804 5803 5802 5802 5801 5801 5800 5800 5800 5800 5799 5800 5800 5802 5803 5804 5804 5804 5805 5807
5833 5832 5829 5828 5826 5824 5822 5820 5818 5816 5814 5812 5810 5809 5807 5805 5804 5801 5800 5798 5797 5796 5795 5794 5793 5792 5791 5790 5790 5789 5788 5788 5787 5788 5787 5788 5789 5790 5791 5792 5792 5793 5794
5825 5825 5823 5821 5819 5817 5814 5813 5810 5808 5806 5804 5802 5800 5798 5796 5794 5792 5791 5789 5787 5785 5784 5782 5781 5780 5778 5777 5778 5777 5776 5775 5775 5774 5775 5775 5774 5774 5776 5777 5778 5779 5780
5818 5818 5817 5813 5812 5809 5807 5804 5802 5799 5798 5795 5793 5791 5789 5787 5785 5782 5780 5777 5775 5774 5771 5769 5768 5766 5764 5762 5762 5763 5762 5761 5759 5759 5759 5760 5760 5759 5759 5760 5762 5763 5765
5811 5809 5809 5806 5803 5801 5798 5796 5793 5791 5788 5787 5784 5782 5779 5777 5774 5771 5768 5765 5762 5760 5758 5755 5753 5752 5750 5747 5745 5745 5747 5748 5743 5743 5743 5743 5743 5743 5743 5743 5744 5745 5747
5804 5801 5799 5798 5794 5792 5789 5787 5784 5782 5779 5776 5775 5772 5768 5765 5761 5759 5755 5752 5749 5746 5743 5740 5737 5735 5734 5732 5727 5725 5725 5726 5726 5727 5725 5723 5723 5724 5725 5725 5724 5726 5728
5797 5795 5792 5788 5787 5783 5781 5778 5775 5772 5769 5765 5763 5761 5757 5753 5750 5746 5742 5738 5734 5730 5727 5724 5720 5717 5714 5713 5711 5708 5705 5703 5702 5707 5710 5707 5705 5704 5703 5703 5704 5705 5707
5789 5787 5783 5780 5777 5776 5772 5769 5766 5763 5759 5754 5750 5747 5743 5739 5734 5730 5725 5721 5717 5713 5710 5706 5703 5699 5696 5694 5691 5689 5688 5685 5682 5678 5680 5686 5685 5683 5682 5682 5682 5682 5683
5782 5779 5776 5772 5769 5766 5763 5760 5757 5752 5748 5743 5737 5733 5729 5724 5719 5714 5708 5704 5700 5696 5692 5689 5685 5682 5679 5676 5673 5670 5667 5665 5664 5660 5657 5656 5656 5661 5660 5659 5659 5660 5660
Wind_Speed
10 11 11 12 13 13 11 11 10 11 12 12 12 12 11 12 12 12 12 13 13 13 13 13 13 13 12 12 11 10 10 10 10 10 10 10 10 11 11 12 13 13 14
12 13 14 14 13 13 13 12 12 12 12 12 12 11 11 12 12 13 13 13 14 14 14 14 14 13 13 13 13 12 11 10 9 10 9 9 9 9 10 9 10 11 11
15 16 15 16 16 14 12 12 12 12 12 12 12 12 12 13 13 13 14 14 14 14 14 15 15 15 14 14 14 13 12 11 10 9 8 8 8 7 8 8 8 8 8
16 18 18 17 16 14 12 12 12 13 12 12 13 13 13 13 14 15 15 15 15 15 15 16 16 16 15 14 14 13 12 12 11 9 8 7 7 6 7 7 7 7 7
18 18 18 17 16 13 12 13 13 13 13 13 14 14 14 15 15 15 15 16 16 16 17 17 17 16 15 15 15 13 12 10 10 10 9 8 7 6 6 6 6 6 6
19 19 18 17 15 14 13 14 13 14 15 15 15 16 15 16 16 16 17 18 17 18 18 18 17 17 16 15 15 13 11 10 8 8 7 7 7 7 6 5 5 5 5
19 19 18 17 16 15 14 15 15 15 16 16 16 16 15 16 16 17 17 18 18 18 18 18 18 17 17 16 15 13 10 10 9 8 6 7 7 6 7 6 5 5 5
19 19 18 17 16 16 16 16 16 16 16 16 16 15 15 17 18 18 18 19 19 19 19 19 19 19 18 17 17 15 13 11 11 11 7 9 7 7 6 6 5 4 4
22 19 18 17 17 17 16 16 17 15 18 19 18 19 19 19 20 21 21 20 20 19 19 20 19 19 18 18 18 18 16 14 13 12 8 11 8 8 7 7 7 6 5
24 19 20 18 19 19 18 18 18 19 20 20 20 21 22 21 22 22 21 20 20 21 21 21 20 19 19 19 19 19 19 18 16 14 13 13 12 11 10 10 9 9 8
24 19 21 20 21 21 19 20 19 20 21 21 22 22 24 24 23 23 23 23 22 24 25 24 22 22 22 23 23 23 23 23 22 19 17 17 15 14 14 13 12 11 11
23 22 23 21 23 23 23 22 22 22 23 24 24 25 25 26 26 25 25 25 25 25 26 27 26 26 26 26 27 26 26 26 26 25 21 22 20 18 16 16 15 14 14
23 26 24 24 25 26 26 26 25 25 26 26 27 27 28 28 28 27 27 27 28 28 28 28 28 28 28 29 28 28 28 28 28 28 26 26 24 23 21 19 19 18 17
22 26 27 27 26 27 30 29 30 30 31 31 30 30 30 30 30 29 29 30 30 30 30 30 29 30 30 30 30 30 29 30 30 31 29 30 30 28 27 26 24 24 23
24 27 27 30 31 31 31 32 33 34 34 33 33 33 32 32 32 32 32 32 32 32 33 32 32 32 32 32 33 33 33 33 34 34 34 34 36 35 34 33 32 31 30
25 28 30 32 33 33 34 34 35 35 35 35 34 34 34 34 34 34 35 35 35 34 35 35 35 35 35 35 35 36 37 37 38 38 38 38 38 39 39 38 38 37 36
25 30 30 34 34 33 35 35 35 35 34 35 34 34 34 35 35 35 35 36 37 37 37 37 37 37 37 37 38 39 40 40 40 41 41 41 41 41 42 43 42 42 41
27 31 33 34 35 34 35 35 35 35 35 35 35 35 35 35 35 35 36 37 38 38 38 39 39 40 40 41 41 42 42 43 43 44 44 45 44 44 45 45 47 47 46
30 31 33 34 35 35 36 36 36 37 37 37 36 36 35 35 36 37 38 39 39 40 41 42 42 43 44 45 45 46 47 47 48 48 48 48 48 48 48 49 49 50 51
34 33 33 35 36 37 38 37 37 37 37 37 36 36 36 37 38 39 40 41 42 44 45 46 47 48 49 49 49 50 50 51 52 53 53 54 54 55 55 53 53 53 53
36 36 34 36 37 37 38 38 38 37 37 38 38 38 39 39 40 42 43 45 47 48 49 50 51 52 53 54 54 53 53 54 56 56 56 57 57 58 59 59 59 57 57
37 37 36 36 37 37 37 37 38 37 38 39 40 41 42 43 45 47 48 50 52 53 54 55 56 56 56 58 59 59 58 57 59 60 61 61 61 62 62 63 63 62 62
38 37 38 36 37 37 38 39 40 40 42 43 42 43 45 48 50 52 54 56 57 58 58 59 60 61 61 61 63 65 65 64 63 60 62 65 65 65 65 64 66 67 67
36 35 37 38 37 38 39 41 42 42 43 46 47 49 51 53 56 58 59 60 60 62 63 63 64 64 65 64 63 63 66 68 69 67 61 62 64 66 67 68 69 69 69
35 35 38 39 41 41 42 42 44 46 48 51 53 56 58 60 61 62 63 64 65 65 64 64 63 63 63 64 64 63 63 64 66 71 73 64 64 65 66 68 69 70 71
36 38 39 41 42 44 45 47 48 51 54 56 59 61 63 64 65 66 66 65 64 64 63 63 63 63 63 63 63 64 65 65 65 69 72 73 74 70 70 71 73 73 74
Wind_Direction
305 305 307 307 307 307 304 306 312 311 311 312 313 316 318 317 316 319 322 323 324 326 328 331 334 335 335 330 324 327 332 340 346 349 354 354 0 3 9 23 35 41 45
294 295 299 301 302 301 301 304 309 310 310 309 308 307 308 308 309 311 313 314 316 320 322 324 327 328 326 323 317 316 318 325 334 340 349 349 353 356 358 8 21 33 46
293 294 297 297 295 296 300 305 307 308 310 309 306 303 304 305 306 308 309 310 312 315 317 320 322 321 319 317 315 313 312 312 318 323 331 340 345 347 351 357 9 19 31
290 291 291 291 292 294 299 300 303 304 304 304 303 303 304 304 306 307 307 306 307 309 311 312 312 311 310 307 305 307 308 309 308 309 310 318 329 338 339 345 354 9 13
289 288 289 288 288 292 296 298 302 302 299 299 300 301 302 302 304 303 302 301 302 306 307 307 306 304 305 303 300 298 297 301 305 307 305 304 304 318 326 336 340 349 0
289 289 287 287 290 294 295 299 297 295 295 298 298 296 298 298 298 299 298 298 300 301 301 301 300 299 300 298 295 296 294 294 292 293 304 306 303 307 309 317 325 334 343
285 285 284 285 287 288 292 296 296 297 299 299 298 295 295 297 297 297 296 298 296 296 297 296 294 293 293 292 290 286 282 283 284 286 286 287 294 302 307 307 312 318 326
283 280 277 279 282 284 290 294 296 297 299 298 295 293 298 300 301 299 298 296 296 297 294 293 289 286 286 284 282 278 271 266 266 269 274 271 276 281 287 297 304 311 317
282 278 273 277 281 285 287 291 295 298 301 298 296 296 299 299 298 297 297 296 295 295 294 292 287 284 282 279 277 277 273 265 260 259 247 263 263 268 270 274 283 290 297
283 273 273 282 283 287 290 294 297 298 298 297 297 299 297 295 295 296 298 296 293 293 293 290 285 279 276 274 274 271 272 270 264 258 252 254 257 263 265 267 270 276 282
280 274 269 278 284 290 291 291 293 295 295 296 296 295 292 292 293 295 296 294 291 290 288 285 280 273 271 271 270 269 268 269 270 264 260 258 255 255 258 264 265 267 271
279 277 277 278 281 283 286 287 289 293 294 295 294 292 290 290 290 291 292 292 290 287 283 282 279 273 270 269 270 267 266 266 266 265 261 262 262 257 257 260 262 264 265
284 279 279 280 283 285 285 288 290 290 290 290 291 290 289 287 288 289 290 290 288 286 283 281 279 277 272 270 269 269 268 265 264 263 261 262 259 260 259 258 261 265 266
283 280 283 280 283 286 289 291 290 290 289 289 289 289 287 286 287 287 287 287 286 284 282 280 278 277 277 274 273 271 269 265 262 259 258 261 261 260 259 260 260 261 264
285 283 283 287 288 288 288 288 289 290 290 291 290 289 288 288 288 288 287 285 283 281 280 278 276 274 273 273 272 272 270 267 263 261 259 260 263 261 261 261 261 262 263
289 288 288 285 285 287 289 290 290 289 289 288 288 288 288 288 288 287 286 284 281 279 278 277 276 276 275 274 273 272 271 270 269 267 265 262 261 263 262 262 263 262 262
290 285 285 284 286 288 286 286 286 286 286 286 285 286 286 285 284 282 280 279 279 279 279 278 277 277 276 275 274 274 274 273 272 271 270 269 267 265 267 265 263 264 264
286 284 285 286 286 286 287 287 287 287 287 286 285 283 280 278 277 277 277 277 277 278 278 278 279 278 277 276 275 274 273 272 272 271 271 270 269 268 267 267 267 266 265
287 287 287 289 288 288 289 289 288 287 286 284 282 280 279 278 277 277 277 278 279 279 279 279 279 278 278 278 277 277 276 275 274 273 272 271 270 269 267 266 266 266 266
288 289 290 290 290 290 289 289 287 286 285 283 282 280 279 278 277 277 278 279 280 280 280 280 279 278 277 275 274 273 273 274 273 272 271 271 270 269 267 266 265 264 263
288 289 291 289 289 287 286 286 285 284 284 282 281 280 279 278 279 280 281 282 281 280 280 279 279 278 279 278 275 274 274 273 273 272 271 270 270 269 269 268 267 266 265
290 291 290 289 286 286 286 286 285 284 283 282 281 281 281 282 282 282 282 282 282 282 283 283 282 280 280 280 279 277 274 274 274 273 272 271 270 269 269 268 267 266 265
290 291 290 289 289 289 288 288 287 286 285 285 284 283 283 283 283 283 283 284 285 285 284 283 283 282 281 281 281 280 278 276 274 274 275 274 273 271 269 268 269 268 266
292 293 292 291 291 291 290 289 289 289 289 287 287 286 285 285 285 286 286 286 286 286 287 286 286 285 284 282 282 281 281 280 279 276 275 275 274 273 273 272 270 267 266
295 294 294 293 292 291 291 291 291 290 290 290 290 290 289 289 289 288 288 289 289 288 288 287 286 285 285 285 284 283 283 283 282 281 278 275 273 272 271 270 269 268 266
295 294 293 293 294 294 295 294 294 293 293 292 291 290 289 290 291 291 290 289 289 288 287 286 286 285 286 286 286 285 284 283 282 281 279 278 277 275 273 272 271 268 266